This is the latest recevied weather packets stored in our database for station/object KA3RQR. If no packets are shown the sender has not sent any weather packets the latest 10 day(s).
| Time | Temp. | Humidity | Pressure | Rain* | Wind** | Luminosity | Snow |
|---|---|---|---|---|---|---|---|
| 1777840133 | 17.78° C | 30% | 1014.7 hPa | 0 mm | - | 521 W/m² | - |
| 1777839831 | 16.67° C | 32% | 1014.8 hPa | 0 mm | - | 519 W/m² | - |
| 1777839529 | 17.22° C | 33% | 1014.8 hPa | 0 mm | - | 222 W/m² | - |
| 1777839226 | 16.67° C | 33% | 1014.9 hPa | 0 mm | - | 544 W/m² | - |
| 1777838924 | 16.11° C | 33% | 1014.8 hPa | 0 mm | - | 532 W/m² | - |
| 1777838619 | 16.67° C | 34% | 1015.1 hPa | 0 mm | - | 547 W/m² | - |
| 1777838317 | 16.11° C | 33% | 1015.1 hPa | 0 mm | - | 560 W/m² | - |
| 1777838013 | 17.22° C | 39% | 1015.3 hPa | 0 mm | - | 616 W/m² | - |
| 1777837710 | 16.67° C | 36% | 1015.3 hPa | 0 mm | - | 471 W/m² | - |
| 1777837406 | 16.67° C | 32% | 1015.2 hPa | 0 mm | - | 593 W/m² | - |
| 1777837103 | 16.11° C | 34% | 1015.5 hPa | 0 mm | - | 602 W/m² | - |
| 1777836799 | 16.67° C | 33% | 1015.4 hPa | 0 mm | - | 554 W/m² | - |
| 1777836495 | 16.11° C | 36% | 1015.5 hPa | 0 mm | - | 589 W/m² | - |
| 1777836190 | 16.11° C | 37% | 1015.7 hPa | 0 mm | - | 556 W/m² | - |
| 1777835886 | 15.56° C | 39% | 1015.7 hPa | 0 mm | - | 109 W/m² | - |
| 1777835584 | 15.56° C | 36% | 1015.8 hPa | 0 mm | - | 151 W/m² | - |
| 1777835280 | 15° C | 35% | 1015.9 hPa | 0 mm | - | 209 W/m² | - |
| 1777834977 | 15° C | 37% | 1015.7 hPa | 0 mm | - | 64 W/m² | - |
| 1777834675 | 15° C | 39% | 1015.7 hPa | 0 mm | - | 136 W/m² | - |
| 1777834370 | 15° C | 37% | 1016 hPa | 0 mm | - | 98 W/m² | - |
| 1777834064 | 15° C | 41% | 1016 hPa | 0 mm | - | 99 W/m² | - |
| 1777833761 | 15° C | 38% | 1016 hPa | 0 mm | - | 148 W/m² | - |
| 1777833457 | 14.44° C | 38% | 1016.1 hPa | 0 mm | - | 157 W/m² | - |
| 1777833155 | 14.44° C | 37% | 1016.1 hPa | 0 mm | - | 282 W/m² | - |
| 1777832853 | 14.44° C | 39% | 1016.1 hPa | 0 mm | - | 117 W/m² | - |
* Rain latest hour (hover to see other rain measurements)
** Current wind speed in m/s (hover to see current wind gust speed)